Tracking 28514 objects as of 24-Feb-2024
HD Live streaming from Space Station
objects crossing your sky now

TEVEL 3

Track TEVEL 3 now!
10-day predictions
TEVEL 3 is classified as:


NORAD ID: 50988
Int'l Code: 2022-002E
Perigee: 440.9 km
Apogee: 447.4 km
Inclination: 97.4 °
Period: 93.3 minutes
Semi major axis: 6815 km
RCS: Unknown
Launch date: January 13, 2022
Source: Israel (ISRA)
Launch site: AIR FORCE EASTERN TEST RANGE (AFETR)

Uplink (MHz): 145.970
Downlink (MHz): 436.400
Beacon (MHz):
Mode: 9600bps BPSK FM
Call sign: T3TYB
Status: Active

Your satellite tracking list
Your tracking list is empty




NASA's NSSDC Master Catalog

Two Line Element Set (TLE):
1 50988U 22002E   24054.83719031  .00049854  00000-0  11237-2 0  9999
2 50988  97.3971 127.3318 0004744  60.0322 300.1396 15.43089549117307
Source of the keplerian elements: AMSAT